{"data":{"norad_id":66731,"intl_designator":"2025-276BT","name":"FLOCK 4H-28","alt_names":[],"object_type":"PAYLOAD","status":"ACTIVE","operator":null,"country":"US","launch_date":"2025-11-28","launch_site_code":"AFWTR","launch_vehicle":null,"mission":null,"orbit_class":"UNKNOWN","rcs_meters":null,"size_class":null,"mass_kg":null,"dimensions":null,"purposes":["earth_obs"],"wikipedia_slug":null,"has_3d_model":false,"image_url":null,"decayed_at":null,"tle_current":{"epoch":"2026-06-29T03:46:44.710752Z","epoch_age_seconds":7219112,"freshness":"OLD","line1":"1 66731U 25276BT  26180.15746193  .00005715  00000+0  27018-3 0  9996","line2":"2 66731  97.4183 253.3532 0003532 349.8489  10.2674 15.19776403 32231","mean_motion":15.19776403,"eccentricity":0.0003532,"inclination_deg":97.4183,"raan_deg":253.3532,"arg_perigee_deg":349.8489,"mean_anomaly_deg":10.2674,"bstar":0.00027018,"rev_number":3223,"period_min":94.750780256719,"perigee_km":504.0841409765,"apogee_km":508.94745971467,"semimajor_km":6884.6528003456,"source":"CELESTRAK","updated_at":"2026-06-30T09:00:20.259136Z"}}}